Location: Unspecified
(64.9000°N, 0.0000°E)
Time: 05:48:32
(UTC+00:00)

A-11 Canister half - Pass Details

Date: 22 June 2019
Orbit: 1526 x 1683 km, 47.3° (Epoch: 21 July)

Event Time Altitude Azimuth Distance (km) Brightness Sun altitude
Rises 11:00:49 0° 271° (W) 4,684 11.4 47.4°
Reaches altitude 10° 11:06:28 10° 244° (WSW) 3,697 11.2 47.6°
Maximum altitude 11:09:35 12° 224° (SW) 3,530 11.3 47.7°
Drops below altitude 10° 11:12:43 10° 203° (SSW) 3,704 11.7 47.8°
Sets 11:18:24 0° 177° (S) 4,706 12.2 47.9°
